CZ-4B DEB

Satellite information

Favourite Embed

Satellite Type and Status

DEBRISIN ORBIT

Key statistics

Satellite CZ-4B DEB at a glance.

Uptime

9674

Days in orbit

Revolutions

≈ 14.1

Per day

Orbit

SSO

Sun Synchronous Orbit

Inclination

98.8

Latest

Satellite identification and parameters

Extended collection of information and parameters for CZ-4B DEB.

Object identification

Identified? True

Debris? True

Object name: CZ-4B DEB

International designator: 1999-025EKD

Object number (NORAD): 37580

Object ID (CCSDS): 37580

Country: PEOPLES REPUBLIC OF CHINA (PRC)

Current information (Y/N): Y

RCS size: SMALL

Orbital parameters

Period: 102.244 minutes

Inclination: 98.8368 deg

SMA: 7242.983 km

Apoapsis: 954.155 km

Periapsis: 775.541 km

RAAN: 344.2652 deg

Eccentricy: 0.01233018

Argument of periapsis: 328.5881 deg

Mean anomaly: 211.3201 deg

Mean motion: 14.08401721 rev/day

Mean motion (dot): 0.00000769 rev/day2

B* drag term: 0.00044299163 1/REarth

Two-line elements (TLE)

Creation date: Nov. 1, 2025, 7:40 p.m.

Reference frame: TEME

Reference center: EARTH

Epoch: Oct. 31, 2025, 9:45 p.m. UTC

TLE line 0: 0 CZ-4B DEB

TLE line 1: 1 37580U 99025EKD 25304.90648295 .00000769 00000-0 44299-3 0 9998

TLE line 2: 2 37580 98.8368 344.2652 0123302 328.5881 211.3201 14.08401721145614

Live tracking on map

Real-time ground track for satellite CZ-4B DEB.

In-orbit conjunctions

A list of the most updated potential collisions computed for object CZ-4B DEB.

Target Orbit TCA Probability of collision Miss distance Type
SL-14 R/B LEO 2025-01-17 01:53:39 0.0001212472 328.0 (m) ROCKET BODY
METEOR 1-20 LEO 2024-11-07 17:30:20 0.006980926 123.0 (m) PAYLOAD
FENGYUN 1C DEB SSO 2024-09-27 20:47:15 0.0002310428 516.0 (m) DEBRIS

Associated space launch

Chinese polar orbiting meteorological satellite

CZ-4B DEB was lifted into orbit during the mission ‘Long March 4B | Feng Yun 1C’, on board a Long March 4B space rocket.

The launch took place on May 10, 1999, 1:33 a.m. from Launch Complex 7.

For more information about the launch, click the button.

Launch to space Long March 4B | Feng Yun 1C
Long March 4B | Feng Yun 1C

Agency: N/A

Status: Launch Successful

Launch date: May 10, 1999, 1:33 a.m. UTC

Rocket: Long March 4B

Launch pad: Launch Complex 7

Location: Taiyuan Satellite Launch Center, People's Republic of China

...

Latest news about this satellite

There are no fresh news available about this satellite. Check back as we update our databases every day.


Newsletter sign-up

Weekly statistics, charts and insights to help you stay on top of the space industry.